FW4702 Weather Reports


Display with metric or nautical units.
time (UTC)temp
F
wind
direction
speed
MPH
gust
MPH
rain 1hr
in
rain 24hr
in
rain mn
in
humidity
%
barometer
mb
20260510024058 62 0 0.0 0.0 0.00 0.00 0.00 94 1014.5
20260510023557 62 0 0.0 0.0 0.00 0.00 0.00 94 1014.4
20260510023057 62 0 0.0 0.0 0.00 0.00 0.00 94 1014.5
20260510022601 62 0 0.0 0.0 0.00 0.00 0.00 94 1014.3
20260510022057 63 0 0.0 0.0 0.00 0.00 0.00 94 1014.2
20260510021557 63 0 0.0 0.0 0.00 0.00 0.00 94 1014.0
20260510021101 63 0 0.0 0.0 0.00 0.00 0.00 94 1013.9
20260510020557 63 0 0.0 0.0 0.00 0.00 0.00 93 1013.8
20260510020057 63 0 0.0 0.0 0.00 0.00 0.00 93 1013.8
20260510015558 63 0 0.0 0.0 0.00 0.00 0.00 93 1013.6
20260510015058 64 0 0.0 0.0 0.00 0.00 0.00 92 1013.5
20260510014556 64 0 0.0 0.0 0.00 0.00 0.00 92 1013.4
20260510014057 64 0 0.0 0.0 0.00 0.00 0.00 92 1013.3
20260510013558 64 0 0.0 0.0 0.00 0.00 0.00 92 1013.3
20260510013107 65 0 0.0 0.0 0.00 0.00 0.00 91 1013.2
20260510012600 65 0 0.0 0.0 0.00 0.00 0.00 91 1013.1
20260510012057 65 0 0.0 0.0 0.00 0.00 0.00 91 1013.1
20260510011557 65 0 0.0 0.0 0.00 0.00 0.00 91 1013.0
20260510011057 65 0 0.0 0.0 0.00 0.00 0.00 91 1012.9
20260510010600 65 0 0.0 0.0 0.00 0.00 0.00 90 1013.0
20260510010110 66 0 0.0 0.0 0.00 0.00 0.00 89 1012.9
20260510005557 67 0 0.0 0.0 0.00 0.00 0.00 88 1012.8
20260510005057 67 0 0.0 0.0 0.00 0.00 0.00 88 1012.8
20260510004604 67 0 0.0 0.0 0.00 0.00 0.00 89 1012.7
20260510004057 67 0 0.0 0.0 0.00 0.00 0.00 89 1012.5
20260510003558 68 0 0.0 0.0 0.00 0.00 0.00 87 1012.4
20260510003127 68 0 0.0 0.0 0.00 0.00 0.00 84 1012.3
20260510002600 69 0 0.0 0.0 0.00 0.00 0.00 84 1012.3
20260510002057 69 0 0.0 0.0 0.00 0.00 0.00 84 1012.2
20260510001557 69 0 0.0 0.0 0.00 0.00 0.00 82 1012.2
20260510001059 69 0 0.0 0.0 0.00 0.00 0.00 84 1012.0
20260510000557 68 0 0.0 0.0 0.00 0.00 0.00 86 1012.2
20260510000115 68 0 0.0 1.0 0.00 0.00 0.00 87 1012.2
20260509235557 68 0 0.0 1.0 0.00 0.00 0.00 89 1012.2
20260509235057 69 0 0.0 0.0 0.00 0.00 0.00 89 1012.2
20260509234605 69 0 0.0 0.0 0.00 0.00 0.00 88 1012.1
20260509234100 69 0 0.0 0.0 0.00 0.00 0.00 86 1012.1
20260509233559 70 0 0.0 0.0 0.00 0.00 0.00 84 1011.9
20260509233057 70 0 0.0 0.0 0.00 0.00 0.00 81 1011.8
20260509232557 70 0 0.0 0.0 0.00 0.00 0.00 80 1012.0
20260509232058 70 0 0.0 0.0 0.00 0.00 0.00 79 1012.1
20260509231557 70 0 0.0 0.0 0.00 0.00 0.00 81 1012.1
20260509231056 70 0 0.0 0.0 0.00 0.00 0.00 81 1012.1
20260509230557 71 0 0.0 0.0 0.00 0.00 0.00 81 1012.0
20260509230105 71 0 0.0 0.0 0.00 0.00 0.00 81 1011.9
20260509225557 71 0 0.0 0.0 0.00 0.00 0.00 81 1012.0
20260509225057 72 0 0.0 0.0 0.00 0.00 0.00 80 1011.9
20260509224556 72 0 0.0 0.0 0.00 0.00 0.00 78 1011.9
20260509224100 73 0 0.0 0.0 0.00 0.00 0.00 73 1011.8
20260509223557 73 0 0.0 1.0 0.00 0.00 0.00 71 1011.8
20260509223054 73 0 0.0 1.0 0.00 0.00 0.00 70 1011.7
20260509222558 73 0 0.0 1.0 0.00 0.00 0.00 69 1011.6
20260509222057 72 0 0.0 0.0 0.00 0.00 0.00 75 1011.6
20260509221608 72 0 0.0 1.0 0.00 0.00 0.00 73 1011.6
20260509221057 72 0 0.0 1.0 0.00 0.00 0.00 76 1011.6
20260509220556 72 0 0.0 0.0 0.00 0.00 0.00 72 1011.6
20260509220106 72 0 0.0 0.0 0.00 0.00 0.00 77 1011.6
20260509215557 73 0 0.0 0.0 0.00 0.00 0.00 73 1011.6
20260509215057 73 0 0.0 2.0 0.00 0.00 0.00 70 1011.6
20260509214558 73 0 0.0 3.0 0.00 0.00 0.00 69 1011.6
20260509214057 74 57 0.0 3.0 0.00 0.00 0.00 67 1011.5
20260509213557 74 312 0.0 3.0 0.00 0.00 0.00 68 1011.5
20260509213059 74 0 0.0 2.0 0.00 0.00 0.00 68 1011.4
20260509212558 73 0 0.0 2.0 0.00 0.00 0.00 69 1011.4
20260509212102 73 0 0.0 4.0 0.00 0.00 0.00 75 1011.4
20260509211558 74 323 0.0 4.0 0.00 0.00 0.00 67 1011.5
20260509211058 74 311 0.0 4.0 0.00 0.00 0.00 66 1011.4
20260509210558 73 298 1.0 4.0 0.00 0.00 0.00 66 1011.4
20260509210100 73 298 1.0 4.0 0.00 0.00 0.00 69 1011.4
20260509205557 73 0 0.0 2.0 0.00 0.00 0.00 76 1011.4
20260509205057 73 0 0.0 2.0 0.00 0.00 0.00 73 1011.4
20260509204601 72 0 0.0 1.0 0.00 0.00 0.00 74 1011.6
20260509204057 72 0 0.0 1.0 0.00 0.00 0.00 74 1011.6
20260509203557 72 0 0.0 2.0 0.00 0.00 0.00 76 1011.8
20260509203104 73 0 0.0 4.0 0.00 0.00 0.00 71 1011.8
20260509202557 73 317 1.0 4.0 0.00 0.00 0.00 69 1011.9
20260509202058 73 302 1.0 6.0 0.00 0.00 0.00 70 1012.0
20260509201559 73 347 0.0 6.0 0.00 0.00 0.00 70 1012.0
20260509201056 72 301 2.0 6.0 0.00 0.00 0.00 71 1012.0
20260509200556 72 329 0.0 4.0 0.00 0.00 0.00 74 1012.0
20260509200106 72 315 0.0 4.0 0.00 0.00 0.00 73 1011.9
20260509195559 72 0 0.0 3.0 0.00 0.00 0.00 74 1012.0
20260509195100 72 192 1.0 3.0 0.00 0.00 0.00 71 1011.9
20260509194559 72 0 0.0 2.0 0.00 0.00 0.00 74 1011.9
20260509194057 72 0 0.0 2.0 0.00 0.00 0.00 76 1011.9
20260509193559 71 0 0.0 4.0 0.00 0.00 0.00 74 1012.0
20260509193127 72 175 1.0 6.0 0.00 0.00 0.00 71 1011.9
20260509192557 72 311 0.0 6.0 0.00 0.00 0.00 73 1011.9
20260509192059 72 0 0.0 2.0 0.00 0.00 0.00 76 1012.0
20260509191616 72 0 0.0 7.0 0.00 0.00 0.00 73 1012.2
20260509191057 72 5 1.0 7.0 0.00 0.00 0.00 71 1012.2
20260509190557 72 273 1.0 4.0 0.00 0.00 0.00 73 1012.2
20260509190117 71 101 1.0 4.0 0.00 0.00 0.00 73 1012.2
20260509185557 72 0 1.0 3.0 0.00 0.00 0.00 73 1012.3
20260509185057 71 0 0.0 3.0 0.00 0.00 0.00 74 1012.3
20260509184603 71 0 1.0 3.0 0.00 0.00 0.00 75 1012.3
20260509184057 71 0 1.0 3.0 0.00 0.00 0.00 75 1012.4
20260509183557 71 210 1.0 5.0 0.00 0.00 0.00 75 1012.4
20260509183105 71 0 1.0 5.0 0.00 0.00 0.00 74 1012.5
20260509182557 71 169 0.0 3.0 0.00 0.00 0.00 74 1012.6
20260509182056 71 5 0.0 5.0 0.00 0.00 0.00 74 1012.7
20260509181557 71 0 0.0 5.0 0.00 0.00 0.00 73 1012.7
20260509181057 71 313 0.0 3.0 0.00 0.00 0.00 74 1012.7
20260509180557 70 199 1.0 3.0 0.00 0.00 0.00 74 1012.6
20260509180101 70 0 1.0 2.0 0.00 0.00 0.00 73 1012.5
20260509175557 70 248 1.0 2.0 0.00 0.00 0.00 74 1012.4
20260509175058 70 0 0.0 2.0 0.00 0.00 0.00 77 1012.4
20260509174558 70 0 0.0 2.0 0.00 0.00 0.00 76 1012.4
20260509174100 70 186 0.0 2.0 0.00 0.00 0.00 77 1012.4
20260509173554 69 194 0.0 2.0 0.00 0.00 0.00 76 1012.4
20260509173105 69 218 0.0 4.0 0.00 0.00 0.00 77 1012.3
20260509172600 69 177 0.0 5.0 0.00 0.00 0.00 74 1012.2
20260509172058 69 214 2.0 5.0 0.00 0.00 0.00 74 1012.4
20260509171618 70 271 1.0 5.0 0.00 0.00 0.00 74 1012.6
20260509171057 69 206 1.0 3.0 0.00 0.00 0.00 79 1012.7
20260509170557 68 219 1.0 4.0 0.00 0.00 0.00 80 1012.7
20260509170057 68 209 1.0 4.0 0.00 0.00 0.00 77 1012.8
20260509165557 67 0 1.0 4.0 0.00 0.00 0.00 79 1012.9
20260509165057 67 0 1.0 3.0 0.00 0.00 0.00 81 1013.0
20260509164556 67 230 0.0 4.0 0.00 0.00 0.00 82 1013.1
20260509164058 67 0 0.0 4.0 0.00 0.00 0.00 82 1013.0
20260509163556 67 275 0.0 4.0 0.00 0.00 0.00 80 1013.1
20260509163100 66 0 1.0 5.0 0.00 0.00 0.00 83 1013.0
20260509162558 65 198 2.0 5.0 0.00 0.00 0.00 82 1013.0
20260509162057 65 193 1.0 4.0 0.00 0.00 0.00 83 1013.0
20260509161558 65 172 1.0 4.0 0.00 0.00 0.00 83 1013.0
20260509161057 65 205 2.0 4.0 0.00 0.00 0.00 83 1013.0
20260509160558 65 207 1.0 4.0 0.00 0.00 0.00 83 1013.0
20260509160057 65 164 0.0 3.0 0.00 0.00 0.00 84 1013.0
20260509155557 65 211 1.0 3.0 0.00 0.00 0.00 84 1012.9
20260509155057 65 208 0.0 2.0 0.00 0.00 0.00 84 1012.8
20260509154559 64 0 0.0 3.0 0.00 0.00 0.00 86 1012.8
20260509154100 64 0 1.0 4.0 0.00 0.00 0.00 86 1012.9
20260509153557 64 270 0.0 4.0 0.00 0.00 0.00 86 1012.9
20260509153103 63 81 0.0 3.0 0.00 0.00 0.00 86 1012.9
20260509152557 63 221 1.0 4.0 0.00 0.00 0.00 86 1013.0
20260509152057 63 175 1.0 4.0 0.00 0.00 0.00 86 1012.9
20260509151607 63 0 0.0 2.0 0.00 0.00 0.00 86 1012.9
20260509151100 63 0 0.0 2.0 0.00 0.00 0.00 87 1012.9
20260509150557 62 0 0.0 5.0 0.00 0.00 0.00 88 1013.0
20260509150058 61 173 1.0 5.0 0.00 0.00 0.00 89 1012.9
20260509145601 61 0 0.0 3.0 0.00 0.00 0.00 89 1012.9
20260509145057 61 0 0.0 2.0 0.00 0.00 0.00 90 1013.0
20260509144555 61 0 1.0 2.0 0.00 0.00 0.00 90 1013.0
20260509144057 61 0 0.0 3.0 0.00 0.00 0.00 90 1013.0
20260509143557 60 177 1.0 3.0 0.00 0.00 0.00 90 1013.0
20260509143102 60 175 1.0 3.0 0.00 0.00 0.00 90 1012.9
20260509142558 60 0 0.0 2.0 0.00 0.00 0.00 91 1012.9
20260509142057 60 0 1.0 2.0 0.00 0.00 0.00 91 1012.9
20260509141600 60 0 0.0 2.0 0.00 0.00 0.00 91 1013.0
20260509141057 60 0 0.0 2.0 0.00 0.00 0.00 91 1012.9
20260509140557 60 0 0.0 2.0 0.00 0.00 0.00 91 1012.9
20260509140056 60 0 0.0 3.0 0.00 0.00 0.00 91 1012.8
20260509135559 60 0 1.0 3.0 0.00 0.00 0.00 91 1012.6
20260509135057 60 202 0.0 2.0 0.00 0.00 0.00 92 1012.4
20260509134612 60 0 0.0 2.0 0.00 0.00 0.00 92 1012.3
20260509134056 59 202 0.0 2.0 0.00 0.00 0.00 92 1012.2
20260509133559 59 0 0.0 2.0 0.00 0.00 0.00 93 1012.3
20260509133056 59 0 0.0 3.0 0.00 0.00 0.00 93 1012.1
20260509132557 59 224 1.0 3.0 0.00 0.00 0.00 93 1012.2
20260509132100 59 0 0.0 2.0 0.00 0.00 0.00 93 1012.2
20260509131634 58 214 0.0 2.0 0.00 0.00 0.00 93 1012.2
20260509131056 58 0 0.0 2.0 0.00 0.00 0.00 93 1012.2
20260509130556 58 191 0.0 2.0 0.00 0.00 0.00 94 1012.3
20260509130132 58 0 0.0 2.0 0.00 0.00 0.00 94 1012.3
20260509125558 58 0 0.0 1.0 0.00 0.00 0.00 94 1012.4
20260509125058 58 0 0.0 2.0 0.00 0.00 0.00 94 1012.3
20260509124602 58 0 0.0 2.0 0.00 0.00 0.00 94 1012.4
20260509124057 58 220 1.0 2.0 0.00 0.00 0.00 94 1012.4
20260509123559 58 0 0.0 2.0 0.00 0.00 0.00 94 1012.6
20260509123105 58 0 0.0 0.0 0.00 0.00 0.00 94 1012.7
20260509122557 58 0 0.0 0.0 0.00 0.00 0.00 94 1012.6
20260509122100 58 0 0.0 0.0 0.00 0.00 0.00 94 1012.6
20260509121559 58 0 0.0 0.0 0.00 0.00 0.00 94 1012.6
20260509121100 58 0 0.0 0.0 0.00 0.00 0.00 94 1012.6
20260509120559 58 0 0.0 0.0 0.00 0.00 0.00 94 1012.5
20260509120106 58 0 0.0 0.0 0.00 0.00 0.00 94 1012.5
20260509115556 57 0 0.0 0.0 0.00 0.00 0.00 95 1012.4
20260509115056 57 0 0.0 0.0 0.00 0.00 0.00 95 1012.3
20260509114609 57 0 0.0 0.0 0.00 0.00 0.00 95 1012.2
20260509114057 57 0 0.0 0.0 0.00 0.00 0.00 95 1012.2
20260509113556 57 0 0.0 0.0 0.00 0.00 0.00 95 1012.2
20260509113101 57 0 0.0 0.0 0.00 0.00 0.00 95 1012.0
20260509112557 57 0 0.0 0.0 0.00 0.00 0.00 95 1011.9
20260509112057 57 0 0.0 0.0 0.00 0.00 0.00 95 1011.8
20260509111556 57 0 0.0 0.0 0.00 0.00 0.00 95 1011.8
20260509111057 56 0 0.0 0.0 0.00 0.00 0.00 95 1011.7
20260509110558 56 0 0.0 0.0 0.00 0.00 0.00 95 1011.8
20260509110104 56 0 0.0 0.0 0.00 0.00 0.00 95 1011.8
20260509105559 56 0 0.0 0.0 0.00 0.00 0.00 95 1011.7
20260509105057 56 0 0.0 0.0 0.00 0.00 0.00 94 1011.6
20260509104603 56 0 0.0 0.0 0.00 0.00 0.00 94 1011.4
20260509104056 56 0 0.0 0.0 0.00 0.00 0.00 94 1011.6
20260509103556 56 0 0.0 0.0 0.00 0.00 0.00 94 1011.4
20260509103055 56 0 0.0 0.0 0.00 0.00 0.00 94 1011.5
20260509102557 56 0 0.0 0.0 0.00 0.00 0.00 94 1011.2
20260509102057 56 0 0.0 0.0 0.00 0.00 0.00 94 1011.1
20260509101555 56 0 0.0 0.0 0.00 0.00 0.00 94 1011.1
20260509101100 56 0 0.0 0.0 0.00 0.00 0.00 94 1011.1
20260509100557 56 0 0.0 0.0 0.00 0.00 0.00 94 1011.2
20260509100055 56 0 0.0 0.0 0.00 0.00 0.00 94 1011.1
20260509095601 56 0 0.0 0.0 0.00 0.00 0.00 94 1011.1
20260509095100 56 0 0.0 0.0 0.00 0.00 0.00 94 1011.4
20260509094611 56 0 0.0 0.0 0.00 0.00 0.00 93 1011.3
20260509094100 56 0 0.0 0.0 0.00 0.00 0.00 94 1011.6
20260509093557 56 0 0.0 0.0 0.00 0.00 0.00 93 1011.8
20260509093054 56 0 0.0 0.0 0.00 0.00 0.00 93 1011.5
20260509092559 56 0 0.0 0.0 0.00 0.00 0.00 93 1011.6
20260509092056 56 0 0.0 0.0 0.00 0.00 0.00 93 1011.6
20260509091559 56 0 0.0 0.0 0.00 0.00 0.00 93 1011.5
20260509091101 56 0 0.0 0.0 0.00 0.00 0.00 92 1011.4
20260509090557 56 0 0.0 0.0 0.00 0.00 0.00 92 1011.4
20260509090104 56 0 0.0 0.0 0.00 0.00 0.00 92 1011.5
20260509085557 56 0 0.0 0.0 0.00 0.00 0.00 92 1011.5
20260509085058 56 0 0.0 0.0 0.00 0.00 0.00 93 1011.5
20260509084601 56 0 0.0 0.0 0.00 0.00 0.00 93 1011.6
20260509084058 56 0 0.0 0.0 0.00 0.00 0.00 93 1012.0
20260509083600 56 0 0.0 0.0 0.00 0.00 0.00 94 1011.9
20260509083058 56 0 0.0 0.0 0.00 0.00 0.00 94 1011.9
20260509082556 56 0 0.0 0.0 0.00 0.00 0.00 94 1012.2
20260509082057 56 0 0.0 0.0 0.00 0.00 0.00 94 1012.1
20260509081557 56 0 0.0 0.0 0.00 0.00 0.00 94 1012.2
20260509081057 56 0 0.0 0.0 0.00 0.00 0.00 94 1012.1
20260509080557 56 0 0.0 0.0 0.00 0.00 0.00 94 1012.0
20260509080056 55 0 0.0 0.0 0.00 0.00 0.00 95 1012.2
20260509075557 55 0 0.0 0.0 0.00 0.00 0.00 95 1012.2
20260509075057 55 0 0.0 0.0 0.00 0.00 0.00 95 1012.2
20260509074602 55 0 0.0 1.0 0.00 0.00 0.00 95 1012.0
20260509074057 54 0 0.0 1.0 0.00 0.00 0.00 96 1011.8
20260509073556 54 0 0.0 1.0 0.00 0.00 0.00 96 1012.0
20260509073101 54 0 0.0 0.0 0.00 0.00 0.00 96 1011.9
20260509072559 53 0 0.0 0.0 0.00 0.00 0.00 96 1011.7
20260509072056 53 0 0.0 0.0 0.00 0.00 0.00 96 1012.0
20260509071600 53 0 0.0 0.0 0.00 0.00 0.00 96 1012.0
20260509071057 53 0 0.0 0.0 0.00 0.00 0.00 96 1011.9
20260509070556 53 0 0.0 0.0 0.00 0.00 0.00 96 1011.8
20260509070105 53 0 0.0 0.0 0.00 0.00 0.00 96 1011.8
20260509065558 53 0 0.0 0.0 0.00 0.00 0.00 96 1012.0
20260509065057 53 0 0.0 0.0 0.00 0.00 0.00 96 1012.0
20260509064556 53 0 0.0 0.0 0.00 0.00 0.00 96 1012.0
20260509064057 53 0 0.0 0.0 0.00 0.00 0.00 96 1011.9
20260509063558 53 0 0.0 0.0 0.00 0.00 0.00 96 1011.9
20260509063058 53 0 0.0 0.0 0.00 0.00 0.00 95 1011.9
20260509062557 52 0 0.0 0.0 0.00 0.00 0.00 96 1012.0
20260509062057 52 0 0.0 0.0 0.00 0.00 0.00 95 1012.0
20260509061612 52 0 0.0 0.0 0.00 0.00 0.00 95 1011.9
20260509061057 52 0 0.0 0.0 0.00 0.00 0.00 95 1011.9
20260509060557 52 0 0.0 0.0 0.00 0.00 0.00 95 1012.1
20260509055559 53 0 0.0 1.0 0.00 0.00 0.00 95 1012.2
20260509055057 53 0 0.0 1.0 0.00 0.00 0.00 95 1012.1
20260509054614 52 0 0.0 0.0 0.00 0.00 0.00 95 1012.1
20260509054057 52 0 0.0 0.0 0.00 0.00 0.00 95 1012.2
20260509053557 53 0 0.0 0.0 0.00 0.00 0.00 95 1012.3
20260509053143 52 0 0.0 0.0 0.00 0.00 0.00 95 1012.4
20260509052600 52 0 0.0 0.0 0.00 0.00 0.00 94 1012.4
20260509052056 53 0 0.0 0.0 0.00 0.00 0.00 94 1012.4
20260509051556 53 0 0.0 0.0 0.00 0.00 0.00 94 1012.4
20260509051057 53 0 0.0 0.0 0.00 0.00 0.00 95 1012.4
20260509050556 52 0 0.0 0.0 0.00 0.00 0.00 95 1012.5
20260509050100 52 0 0.0 0.0 0.00 0.00 0.00 95 1012.5
20260509045557 52 0 0.0 0.0 0.00 0.00 0.00 94 1012.6
20260509045056 53 0 0.0 0.0 0.00 0.00 0.00 95 1012.7
20260509044558 52 0 0.0 0.0 0.00 0.00 0.00 94 1012.7
20260509044057 52 0 0.0 0.0 0.00 0.00 0.00 94 1012.8
20260509043558 53 0 0.0 0.0 0.00 0.00 0.00 94 1012.9
20260509043058 52 0 0.0 0.0 0.00 0.00 0.00 94 1012.9
20260509042557 52 0 0.0 0.0 0.00 0.00 0.00 94 1012.9
20260509042059 52 0 0.0 0.0 0.00 0.00 0.00 94 1012.8
20260509041559 53 0 0.0 0.0 0.00 0.00 0.00 94 1012.8
20260509041056 53 0 0.0 0.0 0.00 0.00 0.00 93 1012.9
20260509040556 53 0 0.0 0.0 0.00 0.00 0.00 93 1013.0
20260509040111 53 0 0.0 0.0 0.00 0.00 0.00 93 1013.0
20260509035556 53 0 0.0 0.0 0.00 0.00 0.00 93 1013.0
20260509035101 53 0 0.0 0.0 0.00 0.00 0.00 92 1012.9
20260509034622 53 0 0.0 0.0 0.00 0.00 0.00 92 1013.0
20260509034057 54 0 0.0 0.0 0.00 0.00 0.00 92 1013.2
20260509033556 54 0 0.0 0.0 0.00 0.00 0.00 91 1013.1
20260509033055 54 0 0.0 0.0 0.00 0.00 0.00 91 1013.2
20260509032600 54 0 0.0 0.0 0.00 0.00 0.00 91 1013.2
20260509032057 54 0 0.0 0.0 0.00 0.00 0.00 91 1013.3
20260509031557 54 0 0.0 0.0 0.00 0.00 0.00 91 1013.4
20260509031057 55 0 0.0 0.0 0.00 0.00 0.00 90 1013.5
20260509030558 55 0 0.0 0.0 0.00 0.00 0.00 89 1013.5
20260509030110 55 0 0.0 0.0 0.00 0.00 0.00 89 1013.6
20260509025554 55 0 0.0 0.0 0.00 0.00 0.00 89 1013.6
20260509025055 56 0 0.0 0.0 0.00 0.00 0.00 88 1013.5
20260509024555 56 0 0.0 0.0 0.00 0.00 0.00 88 1013.3